Location: B
(0.0000°N, 0.0000°E)
Time: 15:11:56
(UTC+01:00)

Daily predictions for brighter satellites

Satellite Brightness Start Highest point End
(mag) Time Altitude Azimuth Time Altitude Azimuth Time Altitude Azimuth
ATLAS 2A CENTAUR R/B 3.3 19:17:14 10° N 19:20:03 23° NE 19:27:13 10° E
Cosmos 773 Rocket 3.9 19:23:00 10° N 19:28:07 74° E 19:33:14 10° SSE
ALOS 3.9 19:28:37 10° ESE 19:30:56 14° ENE 19:33:15 10° NE
Mugunghwa Rocket 4.5 19:26:36 10° WSW 19:32:51 58° NNW 19:39:04 10° NE
Cosmos 1125 Rocket 4.2 19:29:21 10° SSE 19:33:53 30° ESE 19:38:23 10° NE
ATLAS 2AS CENTAUR R/B 4.3 19:29:34 10° NW 19:36:08 39° WSW 19:42:13 10° S
Cosmos 2278 Rocket 2.6 19:30:36 10° SSW 19:36:15 72° WNW 19:41:53 10° N
Delta 7925 Rocket 3.9 19:30:00 10° WSW 19:36:17 68° NNW 19:41:19 10° NE
Cosmos 1437 Rocket 3.4 19:36:24 10° SSW 19:40:14 61° W 19:44:07 10° N
SJ-6B 3.9 19:41:08 10° SE 19:44:10 22° ENE 19:47:08 10° NNE
Cosmos 2297 3.8 19:43:55 10° S 19:49:25 55° ESE 19:54:57 10° NNE
H-2A ROCKET BODY 3.7 19:40:32 10° WNW 19:50:44 31° SW 19:54:06 10° SSE
PSLV R/B 2.9 19:48:19 10° SW 19:51:27 80° SE 19:54:09 13° NE
ATLAS 5 CENTAUR R/B 1.5 19:53:26 10° SSW 19:58:02 73° ESE 20:02:33 10° NNE
ATLAS CENTAUR R/B 2.4 19:57:36 10° NW 20:01:01 40° WSW 20:04:35 10° S
Cosmos 1758 3.7 20:01:08 10° SSE 20:04:50 37° E 20:08:30 10° NNE
SeaSat 1 3.9 20:06:04 18° ENE 20:06:04 18° ENE 20:08:54 10° NNE
GMS 1 Rocket 4.2 20:02:32 10° WSW 20:06:39 80° NNW 20:08:53 24° NE
ISS -1.1 20:04:29 10° WSW 20:06:55 20° NW 20:09:21 10° N
Helios 1B rocket 2.6 20:03:17 10° NNE 20:07:12 45° ESE 20:11:08 10° S
Cosmos 1934 Rocket 4.4 20:03:25 10° SSW 20:09:38 67° W 20:15:44 10° N
HJ-1C 4.1 20:12:44 33° NE 20:12:44 33° NE 20:15:16 10° N
Cosmos 1953 2.5 20:10:34 10° SSE 20:14:30 48° E 20:18:25 10° NNE
Cosmos 2098 Rocket 4.1 20:11:01 10° SSE 20:16:31 52° E 20:23:10 10° NNE
Meteor 1-24 Rocket 4.1 20:12:50 10° NNE 20:18:12 42° E 20:23:43 10° SSE
Cosmos 1680 Rocket 3.8 20:14:30 10° NNW 20:19:40 67° WSW 20:24:49 10° S
GPS 2-12 Rocket1 3.8 20:15:38 10° W 20:20:12 48° NNW 20:22:26 26° NE
Cosmos 1378 3.1 20:17:00 10° N 20:20:38 55° E 20:21:34 41° SE
Meteor 1-4 Rocket 2.3 20:18:30 10° S 20:22:04 77° E 20:25:33 10° N
ARIANE 44L R/B 3.6 20:18:07 10° W 20:22:17 72° S 20:25:20 33° E
HETE-2 4.5 20:19:10 10° W 20:23:17 76° N 20:24:09 53° ENE
ARIANE 5 R/B 2.2 20:17:06 10° W 20:23:50 43° SSW 20:24:25 37° SSE
Cosmos 1544 3.2 20:21:52 10° S 20:25:29 73° W 20:29:04 10° N
ARIANE 5 DEB (SYLDA) 2.9 20:24:03 10° WNW 20:25:35 37° NNW 20:25:35 37° NNW
FREGAT/IRIS 3.8 20:23:14 10° S 20:26:12 44° W 20:29:08 10° NNW
Gbstr 26 Del rocket 3.6 20:23:02 10° NW 20:26:53 53° SW 20:29:56 19° SSE
Orbus 21S 2.8 20:24:22 10° SW 20:26:57 58° SSE 20:28:36 38° E
Meteor 2-5 Rocket 3.9 20:21:49 10° N 20:27:39 78° W 20:33:35 10° S
COSMOS 2406 3.1 20:32:43 10° N 20:38:18 61° ENE 20:39:36 48° SE
Meteor 1-29 4.5 20:48:20 33° SW 20:48:20 33° SW 20:50:33 10° SSW
Cosmos 2100 Rocket 3.9 20:42:38 10° S 20:48:47 63° E 20:54:59 10° NNE
ARIANE 5 R/B 2.5 20:33:21 10° W 20:49:26 80° S 20:49:52 72° SE
Spot 2 Rocket 3.6 20:50:58 62° NNE 20:50:58 62° NNE 20:55:14 10° N
ARIANE 5 DEB (SYLDA) 3.9 20:55:04 10° WSW 20:59:08 58° S 21:00:09 52° SE
Resurs 01 Rocket 3.1 21:02:31 31° NNW 21:02:31 31° NNW 21:04:52 10° NNW
ASTRO E2 4.5 20:56:32 10° SW 20:58:34 28° SW 20:58:34 28° SW
ALOS 4.1 21:04:05 10° SSW 21:08:06 28° WSW 21:12:05 10° NW
ARIANE 5 R/B 3.5 21:02:49 10° W 21:07:26 53° W 21:07:26 53° W
Ariane H10 4.2 20:38:13 10° W 21:27:20 73° N 21:28:33 68° NE
Milstar 3 3.8 21:44:10 10° WSW 21:48:16 40° W 21:48:16 40° W
Sea Lan Dem Rocket 4.2 21:27:47 10° W 21:52:46 68° W 21:52:46 68° W
